Time,���ʓ���,,�V��
,[��Sv/h],,
2011/3/15 14:50,0.05,,������
2011/3/15 16:05,0.05,,������
2011/3/15 16:59,0.04,,������
2011/3/15 18:00,0.25,,������
2011/3/15 18:18,0.11,,������
2011/3/15 18:53,0.18,,������
2011/3/15 19:33,0.14,,������
2011/3/15 20:01,0.14,,������
2011/3/15 20:34,0.1,,������
2011/3/15 20:57,0.09,,������
2011/3/15 22:09,0.04,,������
2011/3/15 22:44,0.04,,������
2011/3/15 23:09,0.04,,������
2011/3/15 23:44,0.03,,������
2011/3/16 0:07,0.04,,������
2011/3/16 0:47,0.03,,������
2011/3/16 1:08,0.03,,������
,,,
2011/3/16 10:35,0.05,,����
2011/3/16 10:50,0.05,,����
2011/3/16 11:25,0.05,,������
2011/3/16 12:25,0.06,,������
2011/3/16 13:45,0.04,,����
2011/3/16 14:53,0.04,,����
2011/3/16 16:00,0.04,,����
2011/3/16 16:34,0.03,,����
2011/3/16 17:08,0.03,,����
2011/3/16 17:50,0.03,,����
2011/3/16 18:38,0.04,,����
2011/3/16 19:28,0.04,,����
2011/3/16 20:29,0.04,,������
2011/3/16 21:35,0.04,,������
2011/3/16 22:21,0.04,,����
2011/3/16 22:47,0.04,,����
2011/3/16 23:16,0.03,,����
2011/3/16 23:49,0.03,,����
2011/3/17 0:19,0.04,,����
2011/3/17 0:51,0.03,,����
2011/3/17 1:23,0.04,,����
2011/3/17 1:43,0.03,,����
2011/3/17 2:27,0.04,,����
2011/3/17 2:58,0.04,,����
2011/3/17 3:38,0.03,,����
2011/3/17 4:25,0.03,,����
2011/3/17 5:28,0.03,,����
,,,
2011/3/17 8:20,0.03,,����
2011/3/17 9:43,0.03,,����
2011/3/17 12:20,0.03,,����
2011/3/17 13:50,0.03,,����
2011/3/17 15:12,0.03,,����
2011/3/17 15:44,0.04,,������
2011/3/17 17:00,0.03,,������
2011/3/17 17:38,0.03,,��
2011/3/17 19:00,0.04,,��
2011/3/17 19:40,0.03,,��
2011/3/17 20:18,0.03,,��
2011/3/17 21:11,0.02,,��
2011/3/17 21:36,0.03,,��
2011/3/17 22:15,0.04,,��
2011/3/17 23:07,0.03,,��
2011/3/18 0:41,0.03,,��
2011/3/18 1:26,0.03,,��
2011/3/18 2:02,0.04,,��
2011/3/18 2:32,0.03,,��
2011/3/18 3:03,0.04,,��
2011/3/18 3:27,0.03,,��
2011/3/18 4:05,0.04,,��
2011/3/18 4:40,0.04,,��
2011/3/18 5:12,0.03,,��
2011/3/18 5:51,0.03,,��
2011/3/18 7:16,0.04,,��
,,,
2011/3/18 10:35,0.04,,��
2011/3/18 12:15,0.04,,��
2011/3/18 13:06,0.03,,��
2011/3/18 13:39,0.03,,��
2011/3/18 14:31,0.03,,��
2011/3/18 15:41,0.04,,��
,,,
2011/3/18 18:01,0.04,,��
2011/3/18 19:17,0.04,,��
2011/3/18 20:10,0.03,,��
2011/3/18 20:46,0.03,,��
2011/3/18 21:20,0.03,,��
2011/3/18 22:00,0.04,,��
2011/3/18 22:58,0.04,,��
2011/3/18 23:23,0.04,,��
2011/3/19 0:39,0.04,,��
2011/3/19 1:15,0.03,,��
2011/3/19 1:51,0.03,,��
2011/3/19 2:45,0.03,,��
2011/3/19 4:15,0.04,,��
2011/3/19 4:58,0.03,,��
2011/3/19 5:36,0.03,,��
2011/3/19 6:14,0.03,,��
2011/3/19 7:34,0.03,,��
2011/3/19 9:32,0.03,,��
2011/3/19 10:40,0.03,,��
2011/3/19 12:18,0.03,,��
2011/3/19 13:53,0.02,,��
2011/3/19 14:29,0.03,,��
2011/3/19 15:24,0.03,,��
2011/3/19 17:07,0.04,,��
2011/3/19 18:55,0.03,,��
2011/3/19 21:53,0.04,,��
2011/3/19 22:51,0.03,,��
2011/3/19 23:53,0.03,,��
2011/3/20 0:43,0.03,,��
2011/3/20 1:24,0.03,,��
2011/3/20 2:17,0.03,,��
2011/3/20 3:05,0.03,,��
2011/3/20 3:57,0.04,,��
2011/3/20 4:39,0.03,,��
2011/3/20 5:03,0.02,,��
2011/3/20 6:07,0.03,,��
2011/3/20 6:51,0.03,,��
2011/3/20 7:49,0.03,,��
2011/3/20 8:59,0.03,,��
2011/3/20 11:17,0.03,,��
2011/3/20 11:51,0.03,,��
2011/3/20 13:17,0.03,,��
2011/3/20 15:07,0.03,,��
2011/3/20 15:50,0.04,,��
,,,
2011/3/20 20:20,0.02,,��
2011/3/20 20:58,0.03,,��
2011/3/20 21:33,0.04,,��
2011/3/20 22:13,0.02,,��
2011/3/20 23:02,0.03,,��
2011/3/20 23:49,0.03,,��
2011/3/21 0:23,0.03,,��
2011/3/21 1:03,0.03,,��
2011/3/21 2:08,0.03,,��
2011/3/21 3:06,0.03,,��
2011/3/21 3:47,0.03,,��
2011/3/21 4:17,0.03,,��
2011/3/21 5:09,0.03,,��
2011/3/21 6:06,0.03,,��
2011/3/21 6:26,0.04,,�J
2011/3/21 6:42,0.04,,�J
2011/3/21 6:58,0.04,,�J
2011/3/21 7:19,0.04,,�J
2011/3/21 7:56,0.04,,�J
2011/3/21 8:36,0.04,,�J
2011/3/21 9:17,0.06,,�J
2011/3/21 9:48,0.05,,�J
2011/3/21 10:06,0.06,,�J
2011/3/21 10:32,0.06,,�J
2011/3/21 10:53,0.06,,�J
2011/3/21 11:12,0.06,,�J
2011/3/21 12:42,0.07,,�J
2011/3/21 13:33,0.06,,�J
2011/3/21 14:33,0.05,,�J
2011/3/21 15:38,0.06,,�J
2011/3/21 16:35,0.07,,�J
2011/3/21 17:23,0.06,,�J
2011/3/21 18:18,0.06,,��
2011/3/21 20:53,0.05,,��
2011/3/21 21:59,0.06,,�J
2011/3/21 22:38,0.09,,�J
2011/3/21 23:02,0.07,,�J
2011/3/21 23:32,0.07,,�J
2011/3/21 23:53,0.08,,�J
2011/3/22 0:38,0.07,,�J
2011/3/22 1:44,0.08,,�J
2011/3/22 2:21,0.07,,�J
2011/3/22 2:57,0.07,,�J
2011/3/22 3:25,0.06,,�J
2011/3/22 3:54,0.06,,�J
2011/3/22 4:43,0.06,,�J
2011/3/22 5:12,0.07,,�J
2011/3/22 10:15,0.05,,��
2011/3/22 11:21,0.06,,�J
2011/3/22 12:09,0.05,,�J
2011/3/22 13:39,0.07,,�J
2011/3/22 15:45,0.06,,�J
2011/3/22 16:54,0.08,,�J
2011/3/22 17:40,0.06,,�J
2011/3/22 19:17,0.06,,��
2011/3/22 21:58,0.09,,�J
2011/3/22 22:54,0.1,,�J
2011/3/22 23:39,0.1,,�J
2011/3/23 1:53,0.08,,�J
,,,
2011/3/23 10:02,0.08,,��
2011/3/23 11:45,0.08,,��
2011/3/23 13:45,0.07,,��
2011/3/23 15:58,0.08,,��
2011/3/23 18:07,0.07,,��
2011/3/23 20:08,0.08,,�J
2011/3/23 22:27,0.07,,�J
,,,
2011/3/24 7:17,0.06,,��
2011/3/24 9:55,0.05,,��
2011/3/24 11:55,0.06,,��
2011/3/24 14:00,0.08,,��
2011/3/24 16:00,0.06,,��
2011/3/24 18:20,0.07,,��
2011/3/24 20:20,0.08,,��
2011/3/24 21:55,0.08,,��
2011/3/25 2:05,0.07,,��
2011/3/25 6:17,0.06,,��
2011/3/25 10:00,0.05,,��
2011/3/25 12:14,0.05,,��
2011/3/25 14:01,0.06,,��
2011/3/25 16:02,0.06,,��
2011/3/25 18:00,0.07,,��
2011/3/25 20:08,0.06,,��
2011/3/25 22:01,0.07,,��
2011/3/26 1:07,0.07,,��
2011/3/26 4:15,0.05,,��
2011/3/26 8:25,0.07,,��
2011/3/26 10:05,0.06,,��
2011/3/26 10:57,0.07,,��
2011/3/26 13:05,0.06,,��
2011/3/26 16:27,0.07,,��
2011/3/26 18:30,0.06,,��
2011/3/26 20:24,0.07,,��
2011/3/27 1:00,0.05,,������
2011/3/27 10:20,0.06,,��
2011/3/27 12:08,0.06,,��
2011/3/27 14:07,0.06,,��
2011/3/27 16:15,0.06,,��
2011/3/27 18:02,0.06,,��
2011/3/27 20:08,0.05,,��
2011/3/28 10:25,0.06,,��
2011/3/28 10:40,0.06,,��
2011/3/28 12:40,0.05,,��
2011/3/28 14:30,0.06,,��
2011/3/28 16:00,0.06,,��
2011/3/28 18:02,0.05,,��
2011/3/28 20:00,0.05,,��
2011/3/28 22:08,0.04,,��
2011/3/29 2:30,0.05,,��
2011/3/29 7:00,0.06,,��
2011/3/29 10:05,0.05,,��
2011/3/29 11:55,0.06,,��
2011/3/29 14:20,0.05,,��
2011/3/29 16:00,0.05,,��
2011/3/29 17:28,0.05,,��
2011/3/29 17:50,0.05,,��
2011/3/29 20:40,0.05,,��
2011/3/29 22:10,0.05,,��
2011/3/30 0:25,0.04,,��
2011/3/30 2:10,0.05,,��
2011/3/30 4:05,0.05,,��
2011/3/30 7:15,0.05,,��
2011/3/30 8:52,0.05,,��
2011/3/30 9:46,0.06,,��
2011/3/30 11:50,0.04,,��
2011/3/30 13:44,0.05,,��
2011/3/30 15:54,0.05,,��
2011/3/30 18:55,0.05,,��
2011/3/30 22:24,0.05,,��
2011/3/31 4:43,0.06,,��
2011/3/31 13:00,0.05,,��
2011/3/31 17:02,0.05,,����
2011/3/31 19:06,0.05,,
2011/3/31 21:06,0.06,,
2011/3/31 23:06,0.06,,
2011/4/1 1:06,0.05,,
2011/4/1 3:06,0.06,,
2011/4/1 5:06,0.06,,
2011/4/1 7:06,0.06,,
2011/4/1 9:06,0.04,,
2011/4/1 11:06,0.04,,
2011/4/1 13:06,0.05,,
2011/4/1 15:06,0.05,,
2011/4/1 17:06,0.05,,
2011/4/1 19:06,0.05,,
2011/4/1 21:06,0.04,,
2011/4/1 22:06,0.05,,
2011/4/1 23:06,0.05,,
2011/4/2 0:06,0.06,,
2011/4/2 1:06,0.06,,
2011/4/2 2:06,0.05,,
2011/4/2 3:06,0.06,,
2011/4/2 4:06,0.06,,
2011/4/2 5:06,0.06,,
2011/4/2 6:06,0.05,,
2011/4/2 7:06,0.05,,
2011/4/2 8:06,0.05,,
2011/4/2 9:06,0.04,,
2011/4/2 10:06,0.04,,
2011/4/2 11:06,0.05,,
2011/4/2 12:06,0.05,,
2011/4/2 13:06,0.04,,
2011/4/2 14:06,0.04,,
2011/4/2 15:06,0.06,,
2011/4/2 16:06,0.05,,
2011/4/2 17:06,0.06,,
2011/4/2 18:06,0.05,,
2011/4/2 19:06,0.05,,
2011/4/2 20:06,0.05,,
2011/4/2 21:06,0.05,,
2011/4/2 22:06,0.05,,
2011/4/2 23:06,0.05,,
2011/4/3 0:06,0.06,,
2011/4/3 1:06,0.06,,
2011/4/3 2:06,0.05,,
2011/4/3 3:06,0.06,,
2011/4/3 4:06,0.04,,
2011/4/3 5:06,0.05,,
2011/4/3 6:06,0.05,,
2011/4/3 7:06,0.05,,
2011/4/3 8:06,0.05,,
2011/4/3 9:06,0.05,,
2011/4/3 10:06,0.05,,
2011/4/3 11:06,0.04,,
2011/4/3 12:06,0.04,,
2011/4/3 13:06,0.05,,
2011/4/3 14:06,0.05,,
2011/4/3 15:06,0.04,,
2011/4/3 16:06,0.04,,
2011/4/3 17:06,0.06,,
2011/4/3 18:06,0.05,,
2011/4/3 19:06,0.05,,
2011/4/3 20:06,0.04,,
2011/4/3 21:06,0.04,,
2011/4/3 22:06,0.06,,
2011/4/3 23:06,0.05,,
2011/4/4 0:06,0.04,,
2011/4/4 1:06,0.06,,
2011/4/4 2:06,0.04,,
2011/4/4 3:06,0.05,,
2011/4/4 4:06,0.05,,
2011/4/4 5:06,0.05,,
2011/4/4 6:06,0.05,,
2011/4/4 7:06,0.04,,����
2011/4/4 8:06,0.05,,����
2011/4/4 9:06,0.04,,����
2011/4/4 10:06,0.04,,����
2011/4/4 11:06,0.04,,����
2011/4/4 11:51,0.03,,
2011/4/4 12:51,0.03,,
2011/4/4 13:51,0.05,,
2011/4/4 14:51,0.05,,
2011/4/4 15:51,0.05,,
2011/4/4 16:51,0.05,,
2011/4/4 17:51,0.04,,
2011/4/4 18:51,0.04,,
2011/4/4 19:51,0.05,,
2011/4/4 20:51,0.05,,
2011/4/4 21:43,0.05,,
2011/4/4 22:45,0.04,,
2011/4/4 23:45,0.05,,
2011/4/5 0:45,0.05,,
2011/4/5 1:45,0.05,,
2011/4/5 2:45,0.05,,
2011/4/5 3:45,0.05,,
2011/4/5 4:45,0.05,,
2011/4/5 5:45,0.04,,
2011/4/5 6:45,0.05,,
2011/4/5 7:45,0.05,,
2011/4/5 8:45,0.04,,
2011/4/5 9:45,0.03,,
2011/4/5 10:45,0.05,,
2011/4/5 11:45,0.04,,
2011/4/5 12:45,0.03,,
2011/4/5 13:45,0.05,,
2011/4/5 14:45,0.05,,
2011/4/5 15:45,0.05,,
2011/4/5 16:45,0.04,,
2011/4/5 17:45,0.05,,
2011/4/5 18:45,0.05,,
2011/4/5 19:45,0.04,,
2011/4/5 20:45,0.04,,
2011/4/5 21:45,0.04,,
2011/4/5 22:45,0.04,,
2011/4/5 23:45,0.05,,
2011/4/6 0:45,0.06,,
2011/4/6 1:45,0.05,,
2011/4/6 2:45,0.05,,
2011/4/6 3:45,0.05,,
2011/4/6 4:45,0.04,,
2011/4/6 5:45,0.04,,
2011/4/6 6:45,0.05,,
2011/4/6 7:45,0.04,,
2011/4/6 8:45,0.03,,
2011/4/6 9:45,0.04,,
2011/4/6 10:45,0.03,,
2011/4/6 11:45,0.04,,
2011/4/6 12:45,0.04,,
2011/4/6 13:45,0.04,,
2011/4/6 14:45,0.04,,
2011/4/6 15:45,0.04,,
2011/4/6 16:45,0.04,,
2011/4/6 17:45,0.04,,
2011/4/6 18:45,0.05,,
2011/4/6 19:45,0.05,,
2011/4/6 20:45,0.06,,
2011/4/6 21:45,0.04,,
2011/4/6 22:45,0.05,,
2011/4/6 23:45,0.04,,
2011/4/7 0:45,0.05,,
2011/4/7 1:45,0.05,,
2011/4/7 2:45,0.05,,
2011/4/7 3:45,0.06,,
2011/4/7 4:45,0.05,,
2011/4/7 5:45,0.05,,
2011/4/7 6:45,0.05,,
2011/4/7 7:45,0.04,,
2011/4/7 8:45,0.05,,
2011/4/7 9:45,0.04,,
2011/4/7 10:45,0.04,,
2011/4/7 11:45,0.03,,
2011/4/7 12:45,0.04,,
2011/4/7 13:45,0.05,,
2011/4/7 14:45,0.04,,
2011/4/7 15:45,0.04,,
2011/4/7 16:45,0.04,,
2011/4/7 17:45,0.05,,
2011/4/7 18:45,0.04,,
2011/4/7 19:45,0.04,,
2011/4/7 20:45,0.05,,
2011/4/7 21:45,0.04,,
2011/4/7 22:45,0.05,,
2011/4/7 23:45,0.05,,
2011/4/8 0:45,0.04,,
2011/4/8 1:45,0.04,,
2011/4/8 2:45,0.05,,
2011/4/8 3:45,0.04,,
2011/4/8 4:45,0.05,,
2011/4/8 5:45,0.04,,
2011/4/8 6:45,0.05,,
2011/4/8 7:45,0.05,,
2011/4/8 8:45,0.05,,
2011/4/8 9:45,0.05,,
2011/4/8 10:45,0.04,,
2011/4/8 11:45,0.04,,
2011/4/8 12:45,0.05,,
2011/4/8 13:45,0.04,,
2011/4/8 14:45,0.04,,
2011/4/8 15:45,0.05,,
2011/4/8 16:45,0.05,,
2011/4/8 17:45,0.04,,
2011/4/8 18:45,0.05,,
2011/4/8 19:45,0.05,,
2011/4/8 20:30,0.05,,
2011/4/8 21:30,0.04,,
2011/4/8 22:30,0.05,,
2011/4/8 23:30,0.04,,
2011/4/9 0:30,0.05,,
2011/4/9 1:30,0.04,,
2011/4/9 2:30,0.04,,
2011/4/9 3:30,0.05,,
2011/4/9 4:30,0.05,,
2011/4/9 5:30,0.04,,
2011/4/9 6:30,0.06,,
2011/4/9 7:30,0.05,,
2011/4/9 8:30,0.04,,
2011/4/9 9:30,0.05,,
2011/4/9 10:30,0.05,,
2011/4/9 11:30,0.05,,
2011/4/9 12:30,0.05,,
2011/4/9 13:30,0.04,,
2011/4/9 14:30,0.05,,
2011/4/9 15:30,0.05,,
2011/4/9 16:30,0.05,,
2011/4/9 17:30,0.04,,
2011/4/9 18:30,0.04,,
2011/4/9 19:30,0.05,,
2011/4/9 20:30,0.05,,
2011/4/9 21:30,0.05,,
2011/4/9 22:30,0.04,,
2011/4/9 23:30,0.05,,
2011/4/10 0:30,0.04,,
2011/4/10 1:30,0.05,,
2011/4/10 2:30,0.05,,
2011/4/10 3:30,0.05,,
2011/4/10 4:30,0.05,,
2011/4/10 5:30,0.04,,
2011/4/10 6:30,0.04,,
2011/4/10 7:30,0.05,,
2011/4/10 8:30,0.05,,
2011/4/10 9:30,0.04,,
2011/4/10 10:30,0.04,,
2011/4/10 11:30,0.04,,
2011/4/10 12:30,0.04,,
2011/4/10 13:30,0.04,,
2011/4/10 14:30,0.05,,
2011/4/10 15:30,0.05,,
2011/4/10 16:30,0.04,,
2011/4/10 17:30,0.04,,
2011/4/10 18:30,0.05,,
2011/4/10 19:30,0.05,,
2011/4/10 20:30,0.05,,
2011/4/10 21:30,0.05,,
2011/4/10 22:30,0.05,,
2011/4/10 23:30,0.05,,
2011/4/11 0:30,0.05,,
2011/4/11 1:30,0.04,,
2011/4/11 2:30,0.05,,
2011/4/11 3:30,0.05,,
2011/4/11 4:30,0.06,,
2011/4/11 5:30,0.04,,
2011/4/11 6:30,0.05,,
2011/4/11 7:30,0.04,,
2011/4/11 8:30,0.05,,
2011/4/11 9:30,0.04,,������
2011/4/11 10:30,0.04,,
2011/4/11 11:30,0.04,,
2011/4/11 12:30,0.03,,
2011/4/11 13:30,0.04,,
2011/4/11 14:30,0.04,,
2011/4/11 15:30,0.04,,
2011/4/11 16:30,0.05,,
2011/4/11 17:30,0.05,,
2011/4/11 18:30,0.06,,
2011/4/11 19:30,0.05,,
2011/4/11 20:30,0.04,,
2011/4/11 21:30,0.05,,
2011/4/11 22:30,0.05,,
2011/4/11 23:30,0.06,,
2011/4/12 0:30,0.05,,
2011/4/12 1:30,0.05,,
2011/4/12 2:30,0.05,,
2011/4/12 3:30,0.05,,
2011/4/12 4:30,0.04,,
2011/4/12 5:30,0.04,,
2011/4/12 6:30,0.06,,
2011/4/12 7:30,0.04,,
2011/4/12 8:30,0.04,,
2011/4/12 9:30,0.03,,
2011/4/12 10:30,0.04,,
2011/4/12 11:30,0.03,,
2011/4/12 12:30,0.03,,
2011/4/12 13:30,0.05,,
2011/4/12 14:30,0.04,,
2011/4/12 15:30,0.04,,
2011/4/12 16:30,0.06,,
2011/4/12 17:30,0.04,,
2011/4/12 18:30,0.04,,
2011/4/12 19:30,0.05,,
2011/4/12 20:30,0.04,,
2011/4/12 21:30,0.05,,
2011/4/12 22:30,0.04,,
2011/4/12 23:30,0.04,,
2011/4/13 0:30,0.05,,
2011/4/13 1:30,0.04,,
2011/4/13 2:30,0.04,,
2011/4/13 3:30,0.05,,
2011/4/13 4:30,0.05,,
2011/4/13 5:30,0.04,,
2011/4/13 6:30,0.04,,
2011/4/13 7:30,0.05,,
2011/4/13 8:30,0.05,,
2011/4/13 9:30,0.04,,
2011/4/13 10:30,0.04,,
2011/4/13 11:30,0.04,,
2011/4/13 12:30,0.03,,
2011/4/13 13:30,0.04,,
2011/4/13 14:30,0.05,,
2011/4/13 15:30,0.05,,
2011/4/13 16:30,0.04,,
2011/4/13 17:30,0.05,,
2011/4/13 18:30,0.05,,
2011/4/13 19:30,0.04,,
2011/4/13 20:30,0.04,,
2011/4/13 21:30,0.04,,
2011/4/13 22:30,0.04,,
2011/4/13 23:30,0.04,,
2011/4/14 0:30,0.05,,
2011/4/14 1:30,0.04,,
2011/4/14 2:30,0.04,,
2011/4/14 3:30,0.05,,
2011/4/14 4:30,0.04,,
2011/4/14 5:30,0.04,,
2011/4/14 6:30,0.04,,
2011/4/14 7:30,0.04,,
2011/4/14 8:30,0.04,,
2011/4/14 9:30,0.03,,
2011/4/14 10:30,0.03,,
2011/4/14 11:30,0.03,,
2011/4/14 12:30,0.03,,
2011/4/14 13:30,0.04,,
2011/4/14 14:30,0.04,,
2011/4/14 15:30,0.04,,
2011/4/14 16:30,0.05,,
2011/4/14 17:30,0.04,,
2011/4/14 18:30,0.04,,
2011/4/14 19:30,0.04,,
2011/4/14 20:30,0.05,,
2011/4/14 21:30,0.05,,
2011/4/14 22:30,0.04,,
2011/4/14 23:30,0.04,,
2011/4/15 0:30,0.04,,
2011/4/15 1:30,0.06,,
2011/4/15 2:30,0.05,,
2011/4/15 3:30,0.04,,
2011/4/15 4:30,0.04,,
2011/4/15 5:30,0.05,,
2011/4/15 6:30,0.04,,
2011/4/15 7:30,0.04,,
2011/4/15 8:30,0.04,,
2011/4/15 9:30,0.03,,
2011/4/15 10:30,0.03,,
2011/4/15 11:30,0.04,,
2011/4/15 12:30,0.03,,
2011/4/15 13:30,0.04,,
2011/4/15 14:30,0.04,,
2011/4/15 15:30,0.04,,
2011/4/15 16:30,0.05,,
2011/4/15 17:30,0.04,,
2011/4/15 18:30,0.04,,
2011/4/15 19:30,0.04,,
2011/4/15 20:30,0.04,,
2011/4/15 21:30,0.04,,
2011/4/15 22:30,0.04,,
2011/4/15 23:30,0.04,,
2011/4/16 0:30,0.05,,
2011/4/16 1:30,0.05,,
2011/4/16 2:30,0.05,,
2011/4/16 3:30,0.04,,
2011/4/16 4:30,0.04,,
2011/4/16 5:30,0.04,,
2011/4/16 6:30,0.05,,
2011/4/16 7:30,0.04,,
2011/4/16 8:30,0.04,,
2011/4/16 9:30,0.03,,
2011/4/16 10:30,0.03,,
2011/4/16 11:30,0.03,,
2011/4/16 12:30,0.03,,
2011/4/16 13:30,0.03,,
2011/4/16 14:30,0.04,,
2011/4/16 15:30,0.04,,
2011/4/16 16:30,0.04,,
2011/4/16 17:30,0.05,,
2011/4/16 18:30,0.05,,
2011/4/16 19:30,0.04,,
2011/4/16 20:30,0.04,,
2011/4/16 21:30,0.04,,
2011/4/16 22:30,0.04,,
2011/4/16 23:30,0.05,,
2011/4/17 0:30,0.05,,
2011/4/17 1:30,0.04,,
2011/4/17 2:30,0.04,,
2011/4/17 3:30,0.04,,
2011/4/17 4:30,0.05,,
2011/4/17 5:30,0.05,,
2011/4/17 6:30,0.04,,
2011/4/17 7:30,0.05,,
2011/4/17 8:30,0.04,,
2011/4/17 9:30,0.03,,
2011/4/17 10:30,0.03,,
2011/4/17 11:30,0.04,,
2011/4/17 12:30,0.04,,
2011/4/17 13:30,0.04,,
2011/4/17 14:30,0.04,,
2011/4/17 15:30,0.05,,
2011/4/17 16:30,0.05,,
2011/4/17 17:30,0.04,,
2011/4/17 18:30,0.05,,
2011/4/17 19:30,0.04,,
2011/4/17 20:30,0.04,,
2011/4/17 21:30,0.04,,
2011/4/17 22:30,0.05,,
2011/4/17 23:30,0.05,,
2011/4/18 0:30,0.05,,
2011/4/18 1:30,0.05,,
2011/4/18 2:30,0.05,,
2011/4/18 3:30,0.04,,
2011/4/18 4:30,0.05,,
2011/4/18 5:30,0.05,,
2011/4/18 6:30,0.05,,
2011/4/18 7:30,0.04,,
2011/4/18 8:30,0.04,,
2011/4/18 9:30,0.03,,
2011/4/18 10:30,0.03,,
2011/4/18 11:30,0.04,,
2011/4/18 12:30,0.05,,
2011/4/18 13:30,0.05,,
2011/4/18 14:30,0.03,,
2011/4/18 15:30,0.05,,
2011/4/18 16:30,0.05,,
2011/4/18 17:30,0.04,,
2011/4/18 18:30,0.04,,
2011/4/18 19:30,0.03,,
2011/4/18 20:30,0.05,,
2011/4/18 21:30,0.04,,
2011/4/18 22:30,0.04,,
2011/4/18 23:30,0.05,,
2011/4/19 0:30,0.05,,
2011/4/19 1:30,0.04,,
2011/4/19 2:30,0.04,,
2011/4/19 3:30,0.04,,
2011/4/19 4:30,0.05,,
2011/4/19 5:30,0.05,,
2011/4/19 6:30,0.04,,
2011/4/19 7:30,0.04,,
2011/4/19 8:30,0.04,,
2011/4/19 9:30,0.05,,
2011/4/19 10:30,0.04,,
2011/4/19 11:30,0.04,,
2011/4/19 12:30,0.04,,
2011/4/19 13:30,0.04,,
2011/4/19 14:30,0.04,,
2011/4/19 15:30,0.05,,
2011/4/19 16:30,0.04,,
2011/4/19 17:30,0.04,,
2011/4/19 18:30,0.05,,
2011/4/19 19:30,0.06,,
2011/4/19 20:30,0.05,,
2011/4/19 21:30,0.05,,
2011/4/19 22:30,0.05,,
2011/4/19 23:30,0.04,,
2011/4/20 0:30,0.04,,
2011/4/20 1:30,0.04,,
2011/4/20 2:30,0.04,,
2011/4/20 3:30,0.05,,
2011/4/20 4:30,0.05,,
2011/4/20 5:30,0.04,,
2011/4/20 6:30,0.04,,
2011/4/20 7:30,0.04,,
2011/4/20 8:30,0.04,,
2011/4/20 9:30,0.03,,
2011/4/20 10:30,0.03,,
2011/4/20 11:30,0.03,,
2011/4/20 12:30,0.03,,
2011/4/20 13:30,0.03,,
2011/4/20 14:30,0.04,,
2011/4/20 15:30,0.04,,
2011/4/20 16:30,0.05,,
2011/4/20 17:30,0.04,,
2011/4/20 18:30,0.03,,
2011/4/20 19:30,0.04,,
2011/4/20 20:30,0.04,,
2011/4/20 21:30,0.04,,
2011/4/20 22:30,0.04,,
2011/4/20 23:30,0.04,,
2011/4/21 0:30,0.04,,
2011/4/21 1:30,0.05,,
2011/4/21 2:30,0.04,,
2011/4/21 3:30,0.04,,
2011/4/21 4:30,0.04,,
2011/4/21 5:30,0.05,,
2011/4/21 6:30,0.05,,
2011/4/21 7:30,0.06,,
2011/4/21 8:30,0.04,,
2011/4/21 9:30,0.04,,
2011/4/21 10:30,0.04,,
2011/4/21 11:30,0.05,,
2011/4/21 12:30,0.03,,
